CW6421 Weather Reports


Display with metric or nautical units.
time (UTC)temp
F
wind
direction
speed
MPH
gust
MPH
rain 1hr
in
rain 24hr
in
rain mn
in
humidity
%
barometer
mb
20260901135530 74 272 14.0 28.0 0.00 0.10 0.00 57 1017.4
20260901134533 75 284 16.0 32.0 0.00 0.10 0.00 57 1017.4
20260901133531 76 270 19.0 29.0 0.00 0.10 0.00 58 1017.4
20260901132529 75 271 15.0 26.0 0.00 0.10 0.00 60 1017.4
20260901131533 74 276 16.0 29.0 0.00 0.10 0.00 60 1017.4
20260901130530 73 275 15.0 28.0 0.00 0.10 0.00 62 1017.5
20260901123530 71 256 16.0 30.0 0.00 0.10 0.00 66 1017.5
20260901122529 71 263 14.0 28.0 0.00 0.10 0.00 67 1017.5
20260901121533 70 264 16.0 24.0 0.00 0.10 0.00 70 1017.5
20260901120531 69 264 18.0 26.0 0.00 0.10 0.00 71 1017.6
20260901115529 69 262 17.0 25.0 0.00 0.10 0.00 72 1017.6
20260901114532 69 280 16.0 24.0 0.00 0.10 0.00 71 1017.6
20260901113532 68 267 15.0 23.0 0.00 0.10 0.00 70 1017.6
20260901112531 70 268 14.0 25.0 0.00 0.10 0.00 67 1017.6
20260901111532 70 290 14.0 25.0 0.00 0.10 0.00 67 1017.6
20260901110531 69 289 14.0 22.0 0.00 0.10 0.00 69 1017.4
20260901105529 69 270 15.0 27.0 0.00 0.10 0.00 69 1017.4
20260901103529 69 265 20.0 23.0 0.00 0.10 0.00 70 1017.4
20260901101536 68 265 18.0 27.0 0.00 0.10 0.00 74 1017.4
20260901100531 67 280 18.0 21.0 0.00 0.10 0.00 75 1017.2
20260901095529 67 270 14.0 20.0 0.00 0.11 0.00 77 1017.2
20260901094532 66 257 15.0 20.0 0.00 0.11 0.00 78 1017.2
20260901093530 65 266 15.0 22.0 0.00 0.12 0.00 79 1017.2
20260901091558 65 264 14.0 20.0 0.00 0.13 0.00 80 1017.2
20260901090530 65 252 14.0 22.0 0.00 0.14 0.00 82 1016.7
20260901085529 64 263 14.0 22.0 0.00 0.14 0.00 82 1016.7
20260901084533 64 248 15.0 22.0 0.00 0.15 0.00 83 1016.7
20260901083531 64 244 15.0 19.0 0.00 0.15 0.00 84 1016.7
20260901082530 64 255 13.0 23.0 0.00 0.16 0.00 84 1016.7
20260901080530 63 245 14.0 22.0 0.00 0.17 0.00 84 1016.4
20260901075529 63 260 14.0 20.0 0.00 0.17 0.00 85 1016.4
20260901074531 62 252 12.0 20.0 0.00 0.17 0.00 85 1016.4
20260901073529 63 246 12.0 18.0 0.00 0.17 0.00 85 1016.4
20260901072530 63 258 14.0 22.0 0.00 0.17 0.00 86 1016.4
20260901071531 62 232 14.0 20.0 0.00 0.17 0.00 86 1016.4
20260901070530 62 235 14.0 17.0 0.00 0.17 0.00 86 1015.8
20260901065529 62 240 13.0 19.0 0.00 0.17 0.00 86 1015.8
20260901064532 62 239 12.0 16.0 0.00 0.17 0.00 87 1015.8
20260901063529 62 250 12.0 16.0 0.00 0.17 0.00 87 1015.8
20260901062530 62 234 12.0 19.0 0.00 0.17 0.00 87 1015.8
20260901061531 61 236 12.0 19.0 0.00 0.17 0.00 88 1015.8
20260901060529 61 244 14.0 21.0 0.00 0.17 0.00 88 1015.2
20260901055530 61 244 14.0 20.0 0.00 0.17 0.00 88 1015.2
20260901054532 61 250 11.0 21.0 0.00 0.17 0.00 88 1015.2
20260901053529 61 238 12.0 19.0 0.00 0.17 0.00 88 1015.2
20260901052529 61 236 13.0 19.0 0.00 0.17 0.00 88 1015.2
20260901045529 60 251 10.0 16.0 0.00 0.17 0.00 88 1014.5
20260901044532 60 254 14.0 15.0 0.01 0.17 0.00 89 1014.5
20260901043530 60 254 12.0 15.0 0.01 0.17 0.00 89 1014.5
20260901042530 60 255 13.0 17.0 0.02 0.17 0.00 89 1014.5
20260901041531 60 250 9.0 17.0 0.02 0.17 0.00 88 1014.5
20260901040529 60 247 9.0 18.0 0.03 0.17 0.00 88 1014.2
20260901034531 60 257 12.0 16.0 0.02 0.16 0.00 88 1014.2
20260901033529 60 251 13.0 18.0 0.02 0.15 0.00 88 1014.2
20260901032529 60 250 12.0 18.0 0.02 0.15 0.00 88 1014.2
20260901031531 60 249 11.0 20.0 0.02 0.14 0.00 88 1014.2
20260901024531 60 240 13.0 19.0 0.01 0.13 0.00 88 1014.0
20260901022528 60 231 11.0 18.0 0.01 0.12 0.00 88 1014.0
20260901021530 59 233 13.0 17.0 0.00 0.12 0.00 88 1014.0
20260901020529 59 233 11.0 15.0 0.00 0.12 0.00 88 1014.1
20260901015529 59 239 14.0 16.0 0.00 0.12 0.00 88 1014.1
20260901013528 59 239 11.0 16.0 0.00 0.12 0.00 87 1014.1
20260901012529 59 227 11.0 14.0 0.00 0.12 0.00 87 1014.1
20260901010530 60 230 10.0 18.0 0.00 0.12 0.00 86 1013.9
20260901005529 60 242 8.0 18.0 0.00 0.12 0.00 86 1013.9
20260901004530 60 224 12.0 17.0 0.00 0.12 0.00 85 1013.9
20260901003530 60 238 11.0 15.0 0.00 0.12 0.00 84 1013.9
20260901000529 61 227 12.0 13.0 0.00 0.12 0.00 83 1013.8
20260831235530 61 225 13.0 14.0 0.00 0.12 0.00 83 1013.8
20260831234531 61 236 13.0 13.0 0.00 0.12 0.00 83 1013.8
20260831233529 61 231 10.0 15.0 0.00 0.12 0.00 83 1013.8
20260831232529 61 233 13.0 16.0 0.00 0.12 0.00 82 1013.8
20260831231532 61 235 11.0 14.0 0.00 0.12 0.00 82 1013.8
20260831230530 61 229 12.0 14.0 0.00 0.12 0.00 82 1013.5
20260831225529 61 232 13.0 16.0 0.00 0.12 0.00 82 1013.5
20260831224532 62 224 11.0 13.0 0.01 0.12 0.00 81 1013.5
20260831223528 62 213 9.0 16.0 0.01 0.12 0.00 81 1013.5
20260831221533 62 238 13.0 13.0 0.01 0.12 0.00 81 1013.5
20260831215529 62 230 10.0 17.0 0.02 0.12 0.00 81 1013.4
20260831214532 62 226 8.0 17.0 0.02 0.11 0.00 80 1013.4
20260831213530 62 234 11.0 14.0 0.02 0.11 0.00 80 1013.4
20260831212528 62 226 9.0 16.0 0.02 0.11 0.00 80 1013.4
20260831211532 62 212 10.0 17.0 0.03 0.11 0.00 79 1013.4
20260831204532 63 227 9.0 22.0 0.02 0.09 0.00 78 1012.3
20260831203528 63 220 11.0 19.0 0.02 0.09 0.00 78 1012.3
20260831202529 63 235 11.0 22.0 0.01 0.08 0.00 77 1012.3
20260831201530 63 232 10.0 34.0 0.01 0.08 0.00 76 1012.3
20260831200530 64 240 8.0 30.0 0.01 0.07 0.00 75 1012.0
20260831195528 64 236 8.0 34.0 0.01 0.07 0.00 74 1012.0
20260831192528 64 233 7.0 34.0 0.00 0.07 0.00 74 1012.0
20260831191531 64 257 8.0 39.0 0.00 0.07 0.00 75 1012.0
20260831190529 64 255 10.0 43.0 0.00 0.07 0.00 75 1011.5
20260831185530 65 256 9.0 40.0 0.00 0.07 0.00 75 1011.5
20260831182528 66 274 19.0 40.0 0.00 0.07 0.00 73 1011.5
20260831181532 67 259 15.0 39.0 0.00 0.07 0.00 72 1011.5
20260831180529 67 250 16.0 36.0 0.00 0.07 0.00 70 1010.5
20260831175530 67 251 17.0 43.0 0.00 0.07 0.00 69 1010.5
20260831173530 68 246 25.0 38.0 0.00 0.07 0.00 68 1010.5
20260831172529 69 253 24.0 33.0 0.00 0.07 0.00 66 1010.5
20260831171532 71 231 16.0 38.0 0.00 0.07 0.00 63 1010.5
20260831170528 72 229 15.0 42.0 0.00 0.07 0.00 61 1010.2
20260831164533 75 229 20.0 28.0 0.00 0.07 0.00 53 1010.2
20260831163528 75 230 18.0 27.0 0.00 0.07 0.00 53 1010.2
20260831161532 75 233 21.0 31.0 0.00 0.07 0.00 53 1010.2
20260831160531 75 237 21.0 32.0 0.00 0.07 0.00 53 1010.4
20260831155528 75 248 22.0 31.0 0.00 0.07 0.00 54 1010.4
20260831154533 76 248 19.0 26.0 0.00 0.07 0.00 55 1010.4
20260831153529 76 231 17.0 25.0 0.00 0.07 0.00 55 1010.4
20260831152529 76 243 16.0 30.0 0.00 0.07 0.00 55 1010.4
20260831151532 76 240 19.0 30.0 0.00 0.07 0.00 55 1010.4
20260831150531 76 224 15.0 30.0 0.00 0.07 0.00 55 1010.7
20260831145530 76 235 18.0 28.0 0.00 0.07 0.00 56 1010.7
20260831144533 76 250 15.0 29.0 0.00 0.07 0.00 56 1010.7
20260831143530 78 249 16.0 30.0 0.00 0.07 0.00 56 1010.7
20260831142531 78 241 16.0 32.0 0.00 0.07 0.00 56 1010.7
20260831141533 78 235 18.0 29.0 0.00 0.07 0.00 56 1010.7